| time (UTC) | temp F | wind direction | speed MPH | gust MPH | rain 1hr in | rain 24hr in | rain mn in | humidity % | barometer mb |
| 20260510030024 | 84 | 213 | 0.0 | 0.0 | 0.00 | 0.00 | 0.00 | 12 | 1001.1 |
| 20260510024523 | 85 | 213 | 0.0 | 0.0 | 0.00 | 0.00 | 0.00 | 11 | 1000.8 |
| 20260510023023 | 86 | 213 | 0.0 | 0.0 | 0.00 | 0.00 | 0.00 | 11 | 1000.6 |
| 20260510021526 | 87 | 213 | 0.0 | 2.0 | 0.00 | 0.00 | 0.00 | 11 | 1000.3 |
| 20260510020022 | 88 | 213 | 0.0 | 2.0 | 0.00 | 0.00 | 0.00 | 10 | 1000.2 |
| 20260510014524 | 89 | 236 | 0.0 | 4.0 | 0.00 | 0.00 | 0.00 | 9 | 1000.1 |
| 20260510013021 | 89 | 234 | 0.0 | 3.0 | 0.00 | 0.00 | 0.00 | 9 | 1000.0 |
| 20260510011520 | 90 | 234 | 0.0 | 3.0 | 0.00 | 0.00 | 0.00 | 8 | 1000.0 |
| 20260510010019 | 90 | 234 | 0.0 | 4.0 | 0.00 | 0.00 | 0.00 | 9 | 1000.0 |
| 20260510004519 | 91 | 232 | 0.0 | 5.0 | 0.00 | 0.00 | 0.00 | 8 | 1000.0 |
| 20260510003033 | 92 | 231 | 2.0 | 5.0 | 0.00 | 0.00 | 0.00 | 8 | 1000.1 |
| 20260510001522 | 92 | 230 | 3.0 | 8.0 | 0.00 | 0.00 | 0.00 | 8 | 1000.1 |
| 20260510000015 | 93 | 236 | 1.0 | 7.0 | 0.00 | 0.00 | 0.00 | 7 | 1000.2 |
| 20260509234524 | 94 | 236 | 1.0 | 5.0 | 0.00 | 0.00 | 0.00 | 7 | 1000.4 |
| 20260509233012 | 92 | 229 | 3.0 | 8.0 | 0.00 | 0.00 | 0.00 | 8 | 1000.4 |
| 20260509231514 | 93 | 215 | 3.0 | 7.0 | 0.00 | 0.00 | 0.00 | 8 | 1000.4 |
| 20260509230010 | 92 | 211 | 1.0 | 8.0 | 0.00 | 0.00 | 0.00 | 8 | 1000.5 |
| 20260509224508 | 94 | 233 | 3.0 | 9.0 | 0.00 | 0.00 | 0.00 | 9 | 1000.8 |
| 20260509223007 | 92 | 219 | 2.0 | 10.0 | 0.00 | 0.00 | 0.00 | 9 | 1000.8 |
| 20260509221505 | 92 | 219 | 2.0 | 7.0 | 0.00 | 0.00 | 0.00 | 9 | 1001.2 |
| 20260509220006 | 91 | 222 | 0.0 | 6.0 | 0.00 | 0.00 | 0.00 | 9 | 1001.3 |
| 20260509214501 | 92 | 226 | 4.0 | 8.0 | 0.00 | 0.00 | 0.00 | 10 | 1001.5 |
| 20260509213134 | 92 | 233 | 2.0 | 9.0 | 0.00 | 0.00 | 0.00 | 10 | 1001.7 |
| 20260509211556 | 92 | 218 | 5.0 | 9.0 | 0.00 | 0.00 | 0.00 | 9 | 1002.1 |
| 20260509210105 | 91 | 232 | 0.0 | 8.0 | 0.00 | 0.00 | 0.00 | 9 | 1002.3 |
| 20260509204552 | 92 | 233 | 3.0 | 8.0 | 0.00 | 0.00 | 0.00 | 8 | 1002.8 |
| 20260509203048 | 92 | 206 | 1.0 | 9.0 | 0.00 | 0.00 | 0.00 | 11 | 1002.9 |
| 20260509201546 | 91 | 208 | 3.0 | 9.0 | 0.00 | 0.00 | 0.00 | 10 | 1003.2 |
| 20260509200044 | 90 | 219 | 3.0 | 8.0 | 0.00 | 0.00 | 0.00 | 11 | 1003.5 |
| 20260509194543 | 90 | 214 | 5.0 | 8.0 | 0.00 | 0.00 | 0.00 | 11 | 1003.7 |
| 20260509193043 | 88 | 226 | 3.0 | 9.0 | 0.00 | 0.00 | 0.00 | 13 | 1003.9 |
| 20260509191541 | 89 | 234 | 3.0 | 8.0 | 0.00 | 0.00 | 0.00 | 12 | 1004.1 |
| 20260509190038 | 88 | 223 | 3.0 | 8.0 | 0.00 | 0.00 | 0.00 | 13 | 1004.2 |
| 20260509184543 | 86 | 202 | 4.0 | 8.0 | 0.00 | 0.00 | 0.00 | 13 | 1004.3 |
| 20260509183033 | 85 | 207 | 3.0 | 10.0 | 0.00 | 0.00 | 0.00 | 13 | 1004.6 |
| 20260509181528 | 84 | 236 | 1.0 | 8.0 | 0.00 | 0.00 | 0.00 | 14 | 1004.8 |
| 20260509180024 | 84 | 225 | 1.0 | 6.0 | 0.00 | 0.00 | 0.00 | 15 | 1005.0 |
| 20260509174521 | 82 | 223 | 1.0 | 9.0 | 0.00 | 0.00 | 0.00 | 18 | 1005.2 |
| 20260509173020 | 81 | 219 | 3.0 | 7.0 | 0.00 | 0.00 | 0.00 | 17 | 1005.3 |
| 20260509171514 | 81 | 214 | 2.0 | 7.0 | 0.00 | 0.00 | 0.00 | 18 | 1005.3 |
| 20260509170013 | 79 | 206 | 2.0 | 8.0 | 0.00 | 0.00 | 0.00 | 19 | 1005.3 |
| 20260509164505 | 78 | 210 | 3.0 | 7.0 | 0.00 | 0.00 | 0.00 | 19 | 1005.4 |
| 20260509163003 | 76 | 226 | 3.0 | 10.0 | 0.00 | 0.00 | 0.00 | 20 | 1005.4 |
| 20260509161603 | 76 | 249 | 1.0 | 9.0 | 0.00 | 0.00 | 0.00 | 21 | 1005.4 |
| 20260509160055 | 74 | 256 | 2.0 | 6.0 | 0.00 | 0.00 | 0.00 | 22 | 1005.5 |
| 20260509154549 | 73 | 196 | 0.0 | 6.0 | 0.00 | 0.00 | 0.00 | 23 | 1005.7 |
| 20260509153059 | 72 | 196 | 2.0 | 5.0 | 0.00 | 0.00 | 0.00 | 23 | 1005.7 |
| 20260509151545 | 71 | 195 | 2.0 | 5.0 | 0.00 | 0.00 | 0.00 | 24 | 1005.6 |
| 20260509150036 | 70 | 193 | 2.0 | 4.0 | 0.00 | 0.00 | 0.00 | 24 | 1005.6 |
| 20260509144533 | 69 | 195 | 2.0 | 4.0 | 0.00 | 0.00 | 0.00 | 26 | 1005.8 |
| 20260509143027 | 69 | 194 | 1.0 | 4.0 | 0.00 | 0.00 | 0.00 | 27 | 1005.8 |
| 20260509141523 | 68 | 190 | 2.0 | 4.0 | 0.00 | 0.00 | 0.00 | 28 | 1005.6 |
| 20260509140019 | 67 | 179 | 0.0 | 3.0 | 0.00 | 0.00 | 0.00 | 30 | 1005.5 |
| 20260509134514 | 66 | 179 | 0.0 | 1.0 | 0.00 | 0.00 | 0.00 | 32 | 1005.4 |
| 20260509133009 | 65 | 180 | 0.0 | 1.0 | 0.00 | 0.00 | 0.00 | 33 | 1005.4 |
| 20260509131505 | 63 | 174 | 0.0 | 0.0 | 0.00 | 0.00 | 0.00 | 35 | 1005.1 |
| 20260509130003 | 63 | 173 | 0.0 | 0.0 | 0.00 | 0.00 | 0.00 | 35 | 1004.8 |
| 20260509124615 | 62 | 174 | 0.0 | 1.0 | 0.00 | 0.00 | 0.00 | 34 | 1004.6 |
| 20260509123057 | 63 | 173 | 0.0 | 1.0 | 0.00 | 0.00 | 0.00 | 34 | 1004.4 |
| 20260509121605 | 63 | 174 | 0.0 | 1.0 | 0.00 | 0.00 | 0.00 | 34 | 1004.1 |
| 20260509120108 | 63 | 173 | 0.0 | 2.0 | 0.00 | 0.00 | 0.00 | 34 | 1003.9 |
| 20260509114550 | 63 | 174 | 0.0 | 0.0 | 0.00 | 0.00 | 0.00 | 34 | 1003.6 |
| 20260509113053 | 64 | 174 | 0.0 | 0.0 | 0.00 | 0.00 | 0.00 | 33 | 1003.6 |
| 20260509111547 | 64 | 173 | 0.0 | 1.0 | 0.00 | 0.00 | 0.00 | 33 | 1003.5 |
| 20260509110047 | 64 | 173 | 0.0 | 1.0 | 0.00 | 0.00 | 0.00 | 33 | 1003.5 |
| 20260509104544 | 64 | 173 | 0.0 | 1.0 | 0.00 | 0.00 | 0.00 | 33 | 1003.5 |
| 20260509103036 | 65 | 173 | 0.0 | 2.0 | 0.00 | 0.00 | 0.00 | 32 | 1003.5 |
| 20260509101542 | 65 | 173 | 0.0 | 2.0 | 0.00 | 0.00 | 0.00 | 32 | 1003.6 |
| 20260509100044 | 65 | 174 | 0.0 | 0.0 | 0.00 | 0.00 | 0.00 | 32 | 1003.5 |
| 20260509094539 | 65 | 174 | 0.0 | 1.0 | 0.00 | 0.00 | 0.00 | 32 | 1003.3 |
| 20260509093038 | 66 | 174 | 0.0 | 0.0 | 0.00 | 0.00 | 0.00 | 32 | 1003.5 |
| 20260509091537 | 66 | 174 | 0.0 | 1.0 | 0.00 | 0.00 | 0.00 | 31 | 1003.3 |
| 20260509090041 | 66 | 174 | 0.0 | 1.0 | 0.00 | 0.00 | 0.00 | 31 | 1003.4 |
| 20260509084542 | 67 | 174 | 0.0 | 2.0 | 0.00 | 0.00 | 0.00 | 31 | 1003.4 |
| 20260509083032 | 67 | 174 | 0.0 | 2.0 | 0.00 | 0.00 | 0.00 | 31 | 1003.4 |
| 20260509081533 | 67 | 174 | 0.0 | 1.0 | 0.00 | 0.00 | 0.00 | 30 | 1003.4 |
| 20260509080030 | 68 | 173 | 0.0 | 1.0 | 0.00 | 0.00 | 0.00 | 30 | 1003.4 |
| 20260509074526 | 68 | 173 | 0.0 | 2.0 | 0.00 | 0.00 | 0.00 | 30 | 1003.5 |
| 20260509073038 | 69 | 173 | 0.0 | 3.0 | 0.00 | 0.00 | 0.00 | 29 | 1003.5 |
| 20260509071522 | 69 | 173 | 1.0 | 3.0 | 0.00 | 0.00 | 0.00 | 28 | 1003.7 |
| 20260509070019 | 70 | 173 | 0.0 | 3.0 | 0.00 | 0.00 | 0.00 | 28 | 1003.6 |
| 20260509064518 | 70 | 173 | 1.0 | 3.0 | 0.00 | 0.00 | 0.00 | 27 | 1003.9 |
| 20260509063024 | 71 | 173 | 1.0 | 5.0 | 0.00 | 0.00 | 0.00 | 27 | 1003.7 |
| 20260509061513 | 71 | 175 | 0.0 | 3.0 | 0.00 | 0.00 | 0.00 | 27 | 1003.9 |
| 20260509060020 | 72 | 177 | 2.0 | 5.0 | 0.00 | 0.00 | 0.00 | 26 | 1003.9 |
| 20260509054510 | 72 | 180 | 1.0 | 8.0 | 0.00 | 0.00 | 0.00 | 25 | 1003.8 |
| 20260509053014 | 73 | 182 | 3.0 | 6.0 | 0.00 | 0.00 | 0.00 | 24 | 1004.0 |
| 20260509051509 | 73 | 175 | 2.0 | 8.0 | 0.00 | 0.00 | 0.00 | 24 | 1003.9 |
| 20260509050008 | 74 | 173 | 2.0 | 6.0 | 0.00 | 0.00 | 0.00 | 23 | 1004.0 |
| 20260509044508 | 75 | 173 | 3.0 | 7.0 | 0.00 | 0.00 | 0.00 | 20 | 1003.9 |
| 20260509043006 | 77 | 293 | 0.0 | 1.0 | 0.00 | 0.00 | 0.00 | 13 | 1003.5 |
| 20260509041507 | 78 | 292 | 0.0 | 2.0 | 0.00 | 0.00 | 0.00 | 13 | 1003.3 |
| 20260509040006 | 78 | 293 | 0.0 | 1.0 | 0.00 | 0.00 | 0.00 | 13 | 1003.1 |
| 20260509034505 | 79 | 293 | 0.0 | 0.0 | 0.00 | 0.00 | 0.00 | 14 | 1003.0 |
| 20260509033004 | 79 | 292 | 0.0 | 0.0 | 0.00 | 0.00 | 0.00 | 14 | 1002.7 |
| 20260509031506 | 79 | 292 | 0.0 | 0.0 | 0.00 | 0.00 | 0.00 | 14 | 1002.6 |